Flag for Norway Weather past 2 weeks in Nesodden, Norway

Now
41 °F

Partly sunny.


Feels Like: 35 °F
Forecast: 1 / 15 °F
Wind: 10 mph from North

Location: Oslo / Fornebu

Current Time: Dec 25, 2014 at 11:10:22 AM

Latest Report: Dec 25, 2014 at 10:20 AM


Visibility: N/A

Pressure: 30.12 "Hg

Humidity: 53%

Dew point: 25 °F

Location of NesoddenLocation

Historic Weather in Nesodden — Graph

°F

Nesodden temperature yesterday

Maximum temperature yesterday: 43 °F (at 2:50 AM)
Minimum temperature yesterday: 39 °F (at 1:50 PM)
Average temperature yesterday: 41 °F

Past Weeks' High & Low Weather Summary

 TemperatureHumidityPressure
High48 °F (Dec 14, 9:20 AM)100% (Dec 15, 9:20 PM)30.12 "Hg (Dec 15, 9:20 PM)
Low32 °F (Dec 15, 9:20 PM)41% (Dec 15, 11:20 AM)28.53 "Hg (Dec 11, 2:50 AM)
Average42 °F72%29.15 "Hg
* Reported Dec 10 9:20 AM — Dec 25 9:50 AM, Nesodden, Weather by CustomWeather, © 2014

Note: Actual official high and low records may vary slightly from our data, if they occured in-between our weather recording intervals... More about our weather records

Advertising

Nesodden weather history for previous 24 hours

 ConditionsComfort  
Time TempWeatherWind HumidityBarometerVisibility
9:50 AM
Dec 25
41 °FPassing clouds.14 mph53%30.12 "HgN/A
9:20 AM41 °FQuite cool.16 mph53%30.09 "HgN/A
8:50 AM39 °FPassing clouds.18 mph52%30.09 "HgN/A
8:20 AM39 °FChilly.20 mph48%30.07 "HgN/A
7:50 AM39 °FChilly.21 mph48%30.07 "HgN/A
7:20 AM39 °FChilly.22 mph45%30.04 "HgN/A
6:50 AM39 °FChilly.23 mph45%30.01 "HgN/A
6:20 AM39 °FChilly.25 mph45%30.01 "HgN/A
5:50 AM39 °FChilly.28 mph42%29.98 "HgN/A
5:20 AM39 °FChilly.28 mph48%29.98 "HgN/A
4:50 AM39 °FChilly.29 mph45%29.98 "HgN/A
4:20 AM39 °FPassing clouds.29 mph45%29.95 "HgN/A
3:50 AM39 °FChilly.29 mph45%29.95 "HgN/A
3:20 AM39 °FChilly.29 mph52%29.92 "HgN/A
2:50 AM39 °FPassing clouds.30 mph45%29.92 "HgN/A
2:20 AM39 °FPassing clouds.31 mph52%29.89 "HgN/A
1:50 AM39 °FPassing clouds.31 mph42%29.86 "HgN/A
1:20 AM39 °FPassing clouds.32 mph48%29.86 "HgN/A
12:50 AM39 °FPassing clouds.33 mph45%29.83 "HgN/A
12:20 AM39 °FPassing clouds.35 mph45%29.83 "HgN/A
11:50 PM
Dec 24
39 °FPassing clouds.35 mph48%29.80 "HgN/A
11:20 PM39 °FPassing clouds.35 mph52%29.80 "HgN/A
10:50 PM39 °FPassing clouds.36 mph45%29.80 "HgN/A
10:20 PM39 °FPassing clouds.38 mph52%29.77 "HgN/A
9:50 PM39 °FPassing clouds.38 mph52%29.74 "HgN/A
9:20 PM39 °FPassing clouds.38 mph52%29.74 "HgN/A
8:50 PM39 °FPassing clouds.38 mph45%29.71 "HgN/A
8:20 PM39 °FChilly.39 mph56%29.71 "HgN/A
7:50 PM39 °FChilly.40 mph52%29.68 "HgN/A
7:20 PM39 °FPassing clouds.41 mph48%29.68 "HgN/A
6:50 PM39 °FPassing clouds.37 mph52%29.65 "HgN/A
6:20 PM41 °FPassing clouds.39 mph53%29.65 "HgN/A
5:50 PM39 °FPassing clouds.40 mph56%29.62 "HgN/A
5:20 PM39 °FPassing clouds.39 mph56%29.62 "HgN/A
4:50 PM41 °FPassing clouds.38 mph57%29.59 "HgN/A
4:20 PM41 °FPassing clouds.39 mph53%29.59 "HgN/A
3:50 PM41 °FPassing clouds.39 mph53%29.56 "HgN/A
3:20 PM39 °FPassing clouds.39 mph56%29.56 "HgN/A
2:50 PM41 °FPassing clouds.39 mph57%29.56 "HgN/A
2:20 PM41 °FPassing clouds.39 mph57%29.53 "HgN/A
1:50 PM39 °FChilly.41 mph56%29.53 "HgN/A
1:20 PM41 °FPassing clouds.43 mph53%29.50 "HgN/A
12:50 PM41 °FPassing clouds.39 mph57%29.50 "HgN/A
12:20 PM41 °FPassing clouds.40 mph57%29.50 "HgN/A
11:50 AM41 °FScattered clouds.39 mph53%29.50 "HgN/A
11:20 AM41 °FPassing clouds.39 mph57%29.50 "HgN/A
Weather by CustomWeather, © 2014

See weather overviewHow to use our weather pages